Regional Weather Roundup
Issued by NWS

Home | Current Version | Previous Version | Graphics & Text | Print | Product List | Glossary On
Versions: 1 2 3 4 5 6 7 8 9 10 11 12 13 14 15 16 17 18 19 20 21 22 23 24 25 26 27 28 29 30 31 32 33 34 35 36 37 38 39 40 41 42 43 44 45 46 47 48 49 50
000
ASUS45 KBOU 271607
RWRCO

WEATHER ROUNDUP FOR COLORADO
NATIONAL WEATHER SERVICE DENVER/BOULDER CO
900 AM MST TUE JAN 27 2015

NOTE: "FAIR" INDICATES FEW OR NO CLOUDS BELOW 12000 FEET WITH NO
SIGNIFICANT WEATHER AND/OR OBSTRUCTIONS TO VISIBILITY.

COZ001>005-013-030-031-271700-
...NORTHWEST COLORADO...

CITY           SKY/WX    TMP DP  RH WIND       PRES   REMARKS
CRAIG          SUNNY     15  13  91 W3        30.34R
HAYDEN         SUNNY     28  18  64 E13       30.33R WCI  18
MEEKER         MOSUNNY   23  18  81 CALM      30.33R
MOUNT WERNER   NOT AVBL
STEAMBOAT SPGS SUNNY     23  19  83 CALM      30.35S
WALDEN         MOSUNNY   21  14  73 CALM      30.37F
$$

COZ006>008-011-271700-
...WEST CENTRAL VALLEYS...

CITY           SKY/WX    TMP DP  RH WIND       PRES   REMARKS
GRAND JUNCTION MOSUNNY   34  28  79 SE5       30.31S WCI  30
MONTROSE       PTSUNNY   34  26  72 SE7       30.35S WCI  28
EAGLE          MOSUNNY   19  18  93 CALM      30.47R
RIFLE          MOSUNNY   29  24  82 CALM      30.36R
DELTA          PTSUNNY   31  24  77 CALM      30.35S
NUCLA          PTSUNNY   37  27  65 CALM      30.38R
$$

COZ017>023-064>068-271700-
...SOUTHWEST COLORADO...

CITY           SKY/WX    TMP DP  RH WIND       PRES   REMARKS
DURANGO        SUNNY     34  25  69 E3        30.38S
CORTEZ         MOSUNNY   39  27  62 E6        30.36S
PAGOSA SPRINGS SUNNY     31  21  66 CALM      30.41S
TELLURIDE      MOSUNNY   43  17  35 E9        30.42S
WOLF CREEK PAS NOT AVBL
$$

COZ009-010-012-014-032>034-037-058>063-271700-
...CENTRAL COLORADO...

CITY           SKY/WX    TMP DP  RH WIND       PRES   REMARKS
ASPEN          MOSUNNY   29  18  63 S6        30.37S WCI  23
BUENA VISTA    MOSUNNY   32  19  58 CALM      30.38F
COPPER MTN     MOSUNNY   37   5  25 S9        30.51S
BERTHOUD PASS  FAIR      28  23  80 NW15      30.52S WCI  17
COTTONWOOD PAS MOSUNNY   45   9  23 CALM      30.42S
GUNNISON       PTSUNNY   -2 -11  65 CALM      30.50S
KREMMLING      SNOW     N/A N/A N/A CALM      30.48S VSB 1/4
LEADVILLE      MOSUNNY   28  10  46 NE6       30.42S WCI  22
MONARCH PASS   MOSUNNY   34  10  37 SW24      30.60S WCI  21
SALIDA         MOSUNNY   37  18  46 NW14      30.45S
SUNLIGHT       MOSUNNY   37  19  48 CALM        N/A
WILKERSON PASS MOSUNNY   36  10  35 SW14G22   30.48S
$$

COZ069>075-271700-
...SAN LUIS VALLEY/SANGRE DE CRISTO MOUNTAINS...

CITY           SKY/WX    TMP DP  RH WIND       PRES   REMARKS
ALAMOSA        PTSUNNY   24  17  74 CALM      30.42S
LA VETA PASS   NOT AVBL
SAGUACHE       PTSUNNY   30  19  64 NW13      30.43R WCI  20
$$

COZ035-036-038>040-271700-
...NORTHERN COLORADO FRONT RANGE...

CITY           SKY/WX    TMP DP  RH WIND       PRES   REMARKS
DENVER INTL AP MOSUNNY   53  22  29 SW17      30.15F
DMNS CITY PARK   N/A     55  18  23 S13       30.15S
AURORA         MOSUNNY   53  21  29 S15       30.17F
FRONT RANGE AP NOT AVBL
ERIE MUNI ARPT SUNNY     45  23  42 CALM      30.15S
BOULDER MUN AP SUNNY     50  23  34 CALM      30.15R
CENTENNIAL     PTSUNNY   53  22  29 E6        30.19R
BROOMFIELD     MOSUNNY   54  21  28 CALM      30.17S
FORT COLLINS   SUNNY     45  25  45 SW3       30.15F
LONGMONT       SUNNY     47  27  46 CALM      30.16S
$$

COZ041-046-047-076>085-087-088-271700-
...PIKES PEAK/PALMER DIVIDE AND SOUTHERN FOOTHILLS...

CITY           SKY/WX    TMP DP  RH WIND       PRES   REMARKS
COLO. SPRINGS  MOSUNNY   56  25  30 N6        30.23F
A. F. ACADEMY  SUNNY     47  23  39 N5        30.23F
ELLICOTT       SUNNY    N/A N/A N/A CALM      30.22S
FALCON         SUNNY     56  20  25 NW3       30.27S
FORT CARSON    SUNNY     50  21  32 NW10      30.20F
LIMON          SUNNY     52  26  36 VRB5      30.18S
MONUMENT HILL  SUNNY     50  19  29 SW8       30.25F
TRINIDAD       MOSUNNY   49  24  37 W13       30.24F
$$

COZ042>045-048>051-090-091-271700-
...NORTHEAST COLORADO...

CITY           SKY/WX    TMP DP  RH WIND       PRES   REMARKS
GREELEY ARPT   SUNNY     36  27  69 NW3       30.13F
AKRON          SUNNY     50  27  40 W13       30.13S
BURLINGTON     SUNNY     56  29  35 SW9       30.13F
WRAY           SUNNY     50  32  50 W14       30.10S
STERLING       SUNNY     41  34  75 SW5       30.12S
HOLYOKE        SUNNY     50  32  50 W12       30.09S
FORT MORGAN    SUNNY     49  26  41 W13       30.13S
$$

COZ086-089-092>099-271700-
...SOUTHEAST COLORADO...

CITY           SKY/WX    TMP DP  RH WIND       PRES   REMARKS
PUEBLO         SUNNY     43  27  53 W6        30.20R
LA JUNTA       SUNNY     48  29  47 W6        30.19S
LAMAR          SUNNY     44  31  60 W9        30.16F
SPRINGFIELD      N/A     57  29  34 SW8       30.19S
$$



USA.gov is the U.S. government's official web portal to all federal, state and local government web resources and services.